QPF
0.00 0.00 0.00 0.00 0.00 0.00 0.00 0.00 0.00 0.00 0.00 0.00 0.00 0.00 0.00 0.00 0.00 0.00 0.00 0.00 0.00 0.00
0.00 0.00 0.00 0.00 0.00 0.00 0.00 0.00 0.00 0.00 0.00 0.00 0.00 0.00 0.00 0.00 0.00 0.00 0.00 0.00 0.00 0.00
0.00 0.00 0.00 0.00 0.00 0.00 0.00 0.00 0.00 0.00 0.00 0.00 0.00 0.00 0.00 0.00 0.00 0.00 0.00 0.00 0.00 0.00
0.00 0.00 0.00 0.00 0.00 0.00 0.00 0.00 0.00 0.00 0.00 0.00 0.00 0.00 0.00 0.00 0.00 0.00 0.00 0.00 0.00 0.00
0.00 0.00 0.00 0.00 0.00 0.00 0.00 0.00 0.00 0.00 0.00 0.00 0.00 0.00 0.00 0.00 0.00 0.00 0.00 0.00 0.00 0.00
0.00 0.00 0.00 0.00 0.00 0.00 0.00 0.00 0.00 0.00 0.00 0.00 0.00 0.00 0.00 0.00 0.00 0.00 0.00 0.00 0.00 0.00
0.00 0.00 0.00 0.00 0.00 0.00 0.00 0.00 0.00 0.00 0.00 0.00 0.00 0.00 0.00 0.00 0.00 0.00 0.00 0.00 0.00 0.00
0.00 0.00 0.00 0.00 0.00 0.00 0.00 0.00 0.00 0.00 0.00 0.00 0.00 0.00 0.00 0.00 0.00 0.00 0.00 0.00 0.00 0.00
0.00 0.00 0.00 0.00 0.00 0.00 0.00 0.00 0.00 0.00 0.00 0.00 0.00 0.00 0.00 0.00 0.00 0.01 0.02 0.01 0.01 0.00
0.00 0.00 0.00 0.00 0.00 0.00 0.00 0.00 0.00 0.00 0.00 0.00 0.00 0.00 0.00 0.00 0.01 0.01 0.01 0.01 0.00 0.00
0.00 0.00 0.00 0.00 0.00 0.00 0.00 0.00 0.00 0.00 0.00 0.00 0.00 0.00 0.00 0.00 0.00 0.01 0.00 0.00 0.00 0.00
0.00 0.00 0.00 0.00 0.00 0.00 0.00 0.00 0.00 0.00 0.00 0.00 0.00 0.00 0.00 0.00 0.00 0.00 0.00 0.00 0.00 0.00
0.00 0.00 0.00 0.00 0.00 0.00 0.00 0.00 0.00 0.00 0.00 0.00 0.00 0.00 0.00 0.00 0.01 0.02 0.01 0.00 0.00 0.00
0.00 0.00 0.00 0.00 0.00 0.00 0.00 0.00 0.00 0.00 0.00 0.00 0.00 0.00 0.00 0.00 0.01 0.03 0.03 0.03 0.01 0.00
MSLP
1035.87 1035.60 1035.28 1034.96 1034.74 1034.44 1033.99 1033.41 1032.90 1032.50 1032.25 1031.96 1031.70 1031.52 1031.35 1031.03 1030.66 1030.15 1029.88 1029.52 1029.05 1028.52
1035.94 1035.55 1035.18 1034.80 1034.55 1034.26 1033.89 1033.25 1032.60 1032.56 1032.11 1031.75 1031.45 1031.26 1030.97 1030.68 1030.37 1029.92 1029.48 1029.06 1028.66 1028.24
1035.92 1035.55 1035.30 1034.90 1034.43 1034.00 1033.56 1033.16 1032.91 1032.39 1031.91 1031.53 1031.25 1030.96 1030.64 1030.28 1029.86 1029.43 1028.98 1028.53 1028.12 1027.64
1035.95 1035.43 1035.05 1034.54 1034.12 1033.72 1033.17 1032.97 1032.52 1032.17 1031.73 1031.29 1030.95 1030.66 1030.34 1029.93 1029.37 1028.76 1028.20 1027.87 1027.58 1026.97
1035.71 1035.22 1034.85 1034.44 1033.92 1033.56 1033.14 1032.74 1032.32 1031.80 1031.39 1030.90 1030.47 1030.07 1029.75 1029.22 1028.70 1028.21 1027.61 1027.14 1026.82 1026.18
1035.53 1035.11 1034.78 1034.35 1033.92 1033.39 1032.88 1032.40 1031.93 1031.37 1030.90 1030.39 1029.91 1029.47 1029.00 1028.44 1027.86 1027.42 1026.80 1026.28 1025.86 1025.29
1035.39 1034.93 1034.47 1034.09 1033.50 1032.84 1032.29 1031.82 1031.39 1030.87 1030.41 1029.97 1029.39 1028.79 1028.15 1027.61 1026.98 1026.42 1025.82 1025.29 1024.75 1024.17
1035.05 1034.61 1034.16 1033.62 1032.93 1032.31 1031.94 1031.31 1030.91 1030.16 1029.61 1029.19 1028.67 1027.84 1027.14 1026.51 1025.77 1025.21 1024.55 1024.00 1023.43 1022.75
1034.80 1034.38 1033.81 1033.13 1032.57 1032.01 1031.35 1030.81 1030.28 1029.50 1028.93 1028.31 1027.77 1026.89 1026.12 1025.30 1024.57 1023.95 1023.37 1022.58 1022.16 1021.58
1034.33 1033.87 1033.34 1032.74 1032.17 1031.46 1030.83 1030.30 1029.62 1028.94 1028.48 1027.69 1027.03 1026.20 1025.20 1024.21 1023.39 1022.86 1022.32 1021.72 1021.05 1020.32
1033.66 1033.27 1032.73 1032.25 1031.62 1031.11 1030.55 1029.94 1029.17 1028.43 1027.85 1027.04 1026.06 1025.21 1024.26 1023.39 1022.48 1021.84 1021.27 1020.66 1019.98 1019.26
1032.75 1032.53 1032.16 1031.76 1031.25 1030.77 1030.16 1029.45 1028.67 1027.83 1026.88 1026.13 1025.19 1024.47 1023.39 1022.47 1021.72 1020.78 1019.96 1019.33 1018.65 1017.94
1031.89 1031.79 1031.63 1031.19 1030.70 1030.16 1029.69 1028.81 1027.99 1026.99 1026.28 1025.48 1024.41 1023.64 1022.68 1021.72 1020.68 1019.63 1018.76 1017.83 1017.10 1016.43
1031.15 1030.96 1030.63 1030.21 1029.86 1029.43 1028.92 1028.24 1027.50 1026.57 1025.54 1024.73 1023.84 1022.70 1021.78 1020.76 1019.55 1018.61 1017.59 1016.64 1015.78 1015.12
Thickness
5316 5315 5314 5313 5312 5312 5314 5315 5314 5314 5313 5313 5313 5312 5314 5318 5322 5331 5339 5348 5356 5364
5286 5284 5283 5281 5280 5279 5279 5281 5282 5279 5280 5281 5281 5280 5282 5285 5286 5292 5300 5309 5319 5329
5254 5252 5249 5247 5246 5245 5245 5244 5242 5243 5244 5243 5241 5241 5243 5247 5250 5255 5262 5269 5278 5289
5222 5221 5218 5215 5211 5210 5210 5207 5208 5208 5209 5208 5207 5205 5206 5210 5214 5219 5227 5231 5238 5252
5191 5190 5187 5185 5183 5180 5178 5177 5177 5179 5180 5180 5181 5182 5182 5184 5186 5191 5197 5202 5206 5218
5166 5164 5162 5161 5160 5160 5160 5160 5159 5160 5161 5162 5163 5165 5165 5166 5170 5171 5176 5182 5185 5193
5141 5141 5140 5139 5140 5142 5143 5145 5145 5146 5147 5147 5149 5150 5151 5152 5156 5159 5163 5168 5173 5178
5121 5120 5121 5122 5125 5128 5129 5132 5134 5137 5138 5138 5138 5139 5140 5142 5146 5150 5155 5160 5164 5169
5103 5103 5106 5109 5112 5115 5119 5122 5124 5127 5128 5130 5128 5129 5129 5131 5136 5142 5146 5153 5156 5160
5089 5092 5094 5099 5102 5105 5109 5111 5114 5116 5115 5117 5117 5117 5118 5122 5127 5132 5138 5143 5148 5154
5077 5081 5085 5088 5091 5093 5095 5098 5101 5104 5103 5105 5108 5107 5109 5113 5119 5125 5130 5135 5141 5147
5070 5071 5073 5075 5077 5079 5082 5085 5088 5091 5094 5094 5098 5098 5102 5106 5111 5119 5127 5132 5138 5143
5061 5061 5061 5063 5066 5067 5068 5073 5076 5081 5081 5082 5088 5090 5094 5099 5106 5115 5123 5132 5138 5143
5051 5051 5052 5055 5056 5056 5057 5060 5062 5065 5071 5073 5076 5084 5088 5094 5102 5111 5121 5129 5137 5141